RH
65 64 59 63 66 62 69 66 63 64 62 62 60 58 62 65 67 68 67 66 67 66 63 61 59 62 85 96 76 55 59 64 56 74 78 80 75 77 73 72 65 71 65 56 52 51 55
66 63 62 64 68 63 68 68 65 65 65 64 63 61 63 64 65 64 66 64 65 65 62 61 58 64 93 97 55 49 51 74 62 82 77 78 72 64 67 69 64 61 58 56 53 52 52
60 63 67 66 58 68 71 70 68 66 66 62 63 62 64 63 62 64 66 65 65 63 60 62 58 68 95 78 56 48 62 74 70 78 87 75 70 68 63 69 60 57 65 66 60 59 57
64 66 64 62 62 70 69 69 69 64 65 65 63 65 59 63 66 68 69 68 69 65 63 64 63 84 92 65 73 62 61 88 86 80 75 74 72 71 70 65 67 71 71 84 62 59 56
65 64 66 64 63 70 69 67 67 67 64 63 68 68 61 61 65 69 72 72 66 68 68 64 80 91 88 75 74 55 58 82 87 88 84 66 74 79 74 77 85 82 92 86 66 56 57
65 66 64 64 65 70 67 66 67 67 65 64 72 62 59 63 69 75 78 74 69 70 73 68 74 92 82 76 76 49 62 78 76 78 86 84 84 93 91 77 91 84 86 85 78 59 67
65 64 64 64 65 69 65 67 66 59 60 63 67 61 60 67 71 76 83 90 81 85 93 82 80 75 75 67 76 64 54 78 92 84 91 90 91 88 85 81 76 74 80 81 73 58 61
61 60 64 65 65 65 62 59 58 64 68 63 62 62 63 66 68 73 90 94 84 80 85 70 61 72 67 65 82 74 58 83 88 96 90 89 90 80 73 70 74 78 84 88 72 60 62
62 62 62 61 68 61 60 63 66 68 73 74 73 76 74 71 72 86 89 82 80 85 91 81 79 83 70 68 71 78 69 81 86 92 91 88 82 73 73 74 86 76 82 83 80 65 65
62 61 64 62 58 68 63 65 69 72 76 76 74 77 77 77 84 91 88 82 89 85 94 98 88 91 76 76 76 62 65 75 84 90 85 92 86 83 86 84 77 90 60 67 66 75 86
62 65 62 58 67 64 61 67 70 74 76 75 78 78 74 71 94 88 95 92 89 90 95 97 89 83 76 69 71 70 72 65 79 82 81 93 94 92 93 87 77 86 64 66 71 80 80
62 63 62 59 60 61 65 69 71 73 76 77 79 79 75 89 94 96 86 84 88 94 98 99 94 91 77 78 81 72 71 66 64 75 70 76 74 80 82 76 69 60 65 73 84 82 90
63 63 61 60 64 65 67 66 73 72 76 76 76 80 87 88 92 94 91 92 96 95 98 100 97 76 77 82 80 75 86 82 94 99 100 89 73 61 57 68 62 65 77 92 80 86 84
64 63 61 61 60 63 64 68 72 74 75 80 76 78 86 90 94 92 93 93 92 98 100 91 74 80 87 74 82 81 85 88 69 89 96 96 96 68 59 67 75 80 76 87 70 78 83
64 63 62 62 62 64 66 67 73 74 78 82 74 91 93 88 91 94 98 98 98 100 94 87 76 90 94 87 89 90 82 81 75 72 85 89 87 66 64 68 66 81 88 72 88 89 93
65 64 62 63 64 65 67 69 70 73 78 80 93 94 92 83 92 94 98 99 99 83 71 71 92 87 95 85 93 90 88 74 69 69 75 78 94 75 69 65 66 70 67 86 92 78 80
66 65 63 64 65 66 67 69 71 73 78 73 94 89 78 91 88 95 99 100 90 82 76 72 86 84 90 88 89 95 86 73 64 68 62 71 82 85 72 82 83 81 87 86 82 86 87
66 65 63 64 66 66 67 69 71 74 80 84 95 93 80 88 97 98 100 99 85 87 82 62 66 70 81 83 83 82 83 73 60 60 70 70 84 96 86 78 71 76 82 79 89 88 94
64 64 64 64 66 66 67 68 70 73 78 95 96 96 86 87 98 99 91 93 89 88 75 65 66 62 73 74 77 73 73 64 61 59 63 65 82 95 87 76 75 84 80 74 76 82 97
66 65 65 65 65 66 66 67 69 72 77 94 96 95 94 96 96 91 93 92 85 81 69 62 66 62 66 72 71 77 76 73 66 59 64 62 77 82 85 75 84 93 87 80 82 99 91
66 65 68 65 65 66 66 66 67 70 76 92 97 97 92 99 94 94 93 89 88 87 75 65 64 63 65 78 82 81 75 76 69 72 69 67 90 90 82 76 82 83 83 87 89 84 90
66 66 71 66 65 65 67 66 66 70 76 94 97 98 89 96 94 89 82 84 86 87 84 77 66 66 69 74 75 84 76 80 74 72 76 72 98 94 93 86 89 94 87 84 86 82 80
65 67 67 68 64 63 66 66 66 66 79 98 97 88 90 86 92 88 88 82 77 78 76 81 74 74 79 87 86 69 63 66 65 74 81 75 95 96 96 89 92 94 88 84 81 81 70
66 65 65 72 64 61 62 63 65 64 74 98 97 98 96 94 94 88 90 85 84 86 83 86 80 82 85 77 79 68 70 70 68 78 69 80 95 96 94 89 97 66 72 66 69 71 69
65 64 66 70 68 63 61 61 62 62 65 91 97 98 98 90 90 90 91 92 85 82 88 88 89 84 85 81 88 82 82 75 71 67 75 70 92 92 94 86 76 71 77 75 78 73 70
66 68 66 68 73 64 62 65 60 58 63 86 95 95 98 99 93 94 95 94 88 90 86 89 87 86 83 90 90 94 97 89 98 95 81 83 81 92 99 98 97 64 65 70 75 81 69
69 65 66 67 74 72 64 62 68 65 63 82 91 90 98 97 77 89 92 96 87 89 89 91 90 87 84 94 93 92 91 84 90 91 98 99 99 98 95 95 87 64 56 71 85 73 75
69 67 71 68 71 80 68 62 64 67 63 77 88 91 92 98 93 86 87 95 88 92 92 85 89 88 94 91 92 93 91 90 93 85 80 87 92 96 88 99 94 67 80 76 67 77 78
67 69 72 70 69 72 79 76 65 62 62 75 91 82 91 95 83 86 82 78 82 78 96 94 87 88 90 94 96 95 96 96 92 95 90 96 86 92 83 82 62 68 65 62 73 77 78
Wind_Speed
19 19 21 21 20 23 23 21 20 21 21 23 20 20 20 19 18 15 15 15 15 14 15 15 15 13 8 2 10 4 11 9 19 14 15 8 11 6 7 7 4 4 2 5 5 5 2
19 21 21 23 20 22 22 22 21 21 21 20 22 19 18 17 17 14 14 13 13 13 14 14 13 9 7 8 4 10 7 6 16 14 14 7 6 5 6 5 6 6 6 4 4 4 3
21 22 22 24 25 23 24 23 22 21 21 20 20 17 17 16 16 16 14 15 14 15 13 12 11 6 10 10 5 9 5 7 12 13 12 7 4 4 6 4 5 4 3 2 5 4 5
20 21 22 24 25 25 24 22 20 20 20 19 19 18 17 16 15 14 15 14 17 14 12 12 11 7 7 2 4 10 5 6 5 6 10 9 5 5 3 3 4 6 3 2 3 7 5
20 22 23 24 25 25 24 21 21 21 21 18 19 18 18 16 11 11 9 17 17 14 13 9 4 3 3 2 5 6 4 8 9 6 7 8 5 3 2 6 4 2 4 4 5 6 3
20 22 22 24 25 25 24 23 23 22 22 21 19 17 16 14 13 13 11 16 15 8 6 2 4 3 2 3 3 3 4 6 7 13 6 6 5 5 3 5 7 6 2 2 5 1 2
20 22 23 26 24 25 23 24 23 22 23 23 20 18 15 15 11 4 4 5 5 3 2 6 4 4 4 7 1 3 5 6 4 12 10 7 7 15 10 5 3 6 4 4 3 0 3
20 22 23 25 25 24 23 25 25 24 23 23 21 18 16 16 16 12 3 1 4 2 2 6 8 10 3 4 7 3 0 4 5 5 7 7 8 7 8 8 6 4 5 2 3 1 1
19 20 21 24 25 24 24 26 27 28 28 25 24 21 19 18 17 2 5 4 3 2 2 4 3 6 3 5 5 5 5 2 6 4 12 6 4 10 9 8 7 2 3 3 3 4 1
20 21 23 24 24 25 25 26 28 29 30 26 21 18 16 16 4 4 1 1 4 1 6 1 2 1 1 9 3 2 3 3 2 8 13 3 2 4 5 6 4 3 2 2 3 3 3
18 21 22 24 24 24 26 27 29 30 27 23 19 16 10 8 6 1 2 5 4 2 6 2 1 4 4 5 9 1 1 3 4 9 3 2 4 11 7 4 7 1 3 4 3 3 3
19 20 21 23 23 24 24 26 29 28 26 23 21 17 5 5 3 0 4 4 3 5 7 0 2 7 7 3 4 4 3 3 2 10 11 4 1 3 3 5 2 8 5 6 4 2 2
18 19 21 21 22 23 24 26 27 26 25 21 20 20 9 3 2 2 3 2 4 6 1 3 4 7 10 6 5 4 2 3 4 5 3 4 2 1 5 7 4 3 5 3 5 4 5
18 18 20 22 24 24 25 25 25 26 23 20 18 11 7 3 2 1 2 4 9 4 5 6 11 13 7 5 6 3 3 3 6 5 4 4 2 1 1 3 5 2 5 5 4 1 4
16 17 19 21 22 23 24 24 24 24 21 18 9 4 2 4 2 1 3 6 3 3 1 9 9 8 5 7 5 4 3 3 3 3 5 5 3 1 3 3 3 3 2 2 6 3 4
16 17 18 20 22 22 24 25 25 24 21 12 2 4 3 7 2 3 3 7 3 2 2 5 5 1 3 3 3 2 1 1 4 2 2 3 5 2 2 3 6 3 6 3 4 2 3
16 15 17 20 21 22 24 25 27 27 22 5 4 4 5 6 3 5 4 4 4 4 2 4 3 5 4 5 4 4 3 2 2 3 5 4 4 1 3 1 6 2 2 6 5 3 4
15 16 16 18 20 22 24 25 27 28 23 6 3 4 3 3 6 2 3 4 4 4 3 4 5 5 4 3 3 3 7 1 4 6 4 1 5 3 1 1 1 2 5 5 5 4 2
13 16 15 17 19 21 23 25 26 28 19 2 3 2 3 3 4 3 3 4 2 4 4 2 2 3 1 4 5 3 3 2 6 3 6 5 2 3 3 4 3 3 4 4 4 4 5
14 15 15 16 17 20 21 24 26 28 20 3 3 4 5 5 1 3 5 3 3 2 2 3 3 3 4 3 4 4 2 3 6 5 7 5 3 5 6 5 4 2 4 5 6 3 4
14 14 16 15 17 18 21 23 25 28 19 4 4 1 2 4 3 4 2 2 2 4 5 4 4 2 5 3 2 3 3 2 4 4 4 4 3 2 4 4 3 4 4 7 7 6 7
13 14 16 15 16 17 19 22 24 27 18 4 3 1 1 2 3 4 4 5 4 2 2 2 6 1 2 4 5 7 6 3 3 3 3 1 3 2 4 2 5 5 8 9 9 6 11
11 14 14 14 14 16 17 19 21 24 13 4 3 1 2 2 2 2 2 4 4 3 4 4 3 3 4 1 2 3 2 5 6 7 3 4 5 2 4 4 5 6 9 13 6 5 9
11 12 14 13 13 14 15 16 18 19 13 1 2 2 2 4 1 3 3 2 3 3 1 3 4 2 2 4 2 6 7 6 6 3 3 5 4 2 3 4 1 6 4 9 11 5 11
10 12 14 14 10 12 13 13 14 15 15 3 2 2 2 3 4 6 2 3 1 3 2 1 2 0 2 4 4 3 1 2 1 2 3 3 4 2 1 3 7 3 4 5 6 4 9
10 9 12 13 9 11 11 10 12 13 10 3 2 2 2 2 3 3 4 3 2 1 3 0 0 1 4 3 2 4 5 4 3 3 3 4 4 3 3 3 3 3 3 3 3 1 2
8 9 10 12 13 10 10 9 10 11 7 3 1 3 1 3 3 2 4 3 1 0 2 2 2 1 3 2 2 3 4 5 5 6 5 4 3 4 5 4 7 6 3 2 2 5 2
7 9 9 10 11 12 11 10 8 9 7 3 2 1 3 2 6 4 3 3 3 1 3 2 3 1 2 3 3 3 3 5 3 5 6 8 7 4 4 4 8 4 4 5 4 2 3
6 7 7 10 10 12 11 11 10 7 8 5 1 1 1 3 7 3 7 8 7 8 4 2 2 3 5 4 1 2 2 1 3 3 0 5 7 6 8 7 4 3 2 3 4 4 4
Wind_Direction
337 347 343 337 334 325 334 329 335 327 327 325 324 331 326 317 317 317 307 301 300 293 287 300 302 305 317 196 246 311 324 204 188 180 185 165 161 137 165 163 121 167 194 206 261 285 225
342 345 335 332 333 333 333 327 334 329 323 325 323 330 328 324 322 317 305 302 297 291 290 299 297 301 259 220 211 311 272 189 175 170 176 160 159 159 142 192 164 189 195 227 252 248 254
343 340 337 333 333 338 333 332 331 327 326 328 324 330 327 321 323 326 319 311 303 297 295 302 296 287 248 221 141 337 259 178 166 172 160 173 156 136 135 123 188 142 104 277 245 201 239
339 338 340 339 330 336 337 335 331 325 326 324 325 323 319 317 322 318 319 320 312 296 286 289 285 284 243 118 329 315 316 104 154 125 144 146 136 105 133 127 62 122 90 217 278 166 236
342 341 342 341 332 338 339 335 332 329 328 323 321 319 319 319 318 324 325 312 308 288 285 284 293 240 227 129 184 261 196 180 151 143 161 144 119 143 98 125 94 86 178 191 314 196 167
340 341 346 340 335 338 338 340 337 334 328 329 324 319 318 315 319 319 291 302 301 283 279 213 268 305 247 203 104 236 145 139 146 149 102 134 160 137 105 179 189 153 168 186 206 296 158
350 344 347 342 346 339 344 345 335 333 327 329 319 321 310 307 312 26 337 346 27 83 323 191 217 248 109 91 5 204 162 107 135 150 188 175 169 191 175 160 138 124 141 177 242 25 306
347 349 348 342 343 344 347 343 339 334 326 322 321 318 309 302 309 313 97 148 221 149 315 246 280 244 309 165 165 204 271 155 138 126 81 143 203 163 153 152 125 119 132 226 281 354 289
344 352 351 346 347 347 345 344 341 337 330 318 308 303 299 297 302 285 166 225 142 157 164 64 274 214 130 122 106 159 176 147 104 92 137 165 121 147 149 169 153 111 148 191 218 333 64
345 350 349 348 348 346 350 348 342 341 341 337 328 312 301 303 49 102 180 331 148 111 88 82 293 63 81 118 45 135 97 151 80 101 99 48 311 137 161 154 115 164 193 86 71 40 264
350 348 351 353 351 354 351 350 348 349 356 7 357 357 54 73 130 118 51 94 84 55 87 93 69 350 235 147 138 158 200 30 113 120 94 85 132 143 162 131 113 178 96 103 85 87 14
349 351 358 354 354 353 351 357 351 355 0 3 3 7 62 52 52 294 126 88 54 35 72 90 132 143 95 41 60 84 50 77 90 52 82 80 177 105 95 102 168 151 86 59 58 84 21
349 354 358 355 354 355 353 0 352 355 1 358 358 11 22 10 18 22 58 26 22 64 265 48 89 124 110 84 85 69 45 71 108 123 79 88 356 51 109 95 61 94 76 348 356 17 219
347 358 354 357 359 354 354 357 355 353 356 355 345 356 357 33 2 140 308 51 56 25 58 133 105 77 80 97 79 66 123 78 36 79 99 136 144 39 37 119 166 110 138 158 218 202 284
347 357 356 358 3 357 353 353 357 354 348 352 356 334 351 287 298 321 28 44 48 354 55 114 75 70 50 44 76 97 359 106 98 50 118 116 45 17 46 102 96 186 147 174 108 71 48
346 355 357 357 360 359 354 352 355 355 347 355 60 336 287 311 342 74 54 86 61 173 58 64 88 124 101 107 84 66 27 97 99 60 109 182 87 24 110 109 45 125 144 75 7 115 266
342 357 358 357 358 358 356 354 351 354 348 341 59 33 270 327 35 51 58 44 337 344 39 87 145 105 123 136 118 160 188 9 117 124 70 130 100 12 79 177 168 114 121 51 103 100 151
343 352 357 0 358 359 359 356 354 354 350 42 97 37 291 13 46 18 27 336 316 310 325 70 93 84 105 117 90 121 188 214 153 143 102 50 115 146 141 349 221 147 162 142 127 224 97
352 346 355 359 360 359 0 358 357 356 2 356 67 243 301 67 65 356 335 320 312 335 357 62 86 72 127 128 121 148 183 145 155 131 152 175 39 60 6 0 3 194 187 134 109 97 200
343 342 350 357 359 359 2 359 359 357 357 73 64 26 335 33 15 1 360 337 356 230 356 54 96 93 100 82 37 163 111 4 169 162 117 86 103 145 183 206 146 199 185 174 130 134 191
337 340 345 355 358 0 2 2 1 358 357 81 34 97 143 335 342 338 281 274 27 3 348 30 51 132 127 106 89 98 96 100 58 133 74 102 119 123 253 233 179 205 187 185 195 179 177
335 336 339 349 355 0 4 3 5 3 355 73 83 30 252 245 271 322 341 359 21 344 356 2 118 264 98 143 176 184 139 151 157 41 111 106 132 90 299 339 213 244 226 211 211 222 257
335 334 331 348 355 355 4 5 7 11 19 53 356 327 301 279 356 26 314 314 352 339 37 47 83 78 67 87 249 198 119 125 154 143 133 136 131 98 279 338 313 294 225 196 178 199 209
328 330 329 343 351 349 1 7 9 17 32 4 1 298 13 291 306 189 315 314 349 4 36 2 33 85 201 126 131 68 65 82 108 88 154 128 106 112 291 5 344 239 155 176 199 204 211
322 328 328 330 341 341 355 1 5 11 27 40 345 352 357 293 310 293 252 256 319 354 58 86 30 207 9 35 60 113 100 60 173 145 137 129 123 152 241 254 282 281 158 141 174 257 201
311 322 328 318 330 333 344 355 358 359 36 52 30 336 0 330 265 331 315 314 219 200 343 287 78 64 75 85 88 168 191 184 180 127 62 88 114 138 184 262 252 247 125 144 131 26 138
304 311 315 312 333 318 332 345 347 352 34 84 333 7 285 280 265 252 246 282 313 70 168 288 194 121 54 106 138 187 242 191 171 185 168 157 167 203 212 269 284 245 194 121 102 225 273
303 315 326 316 322 337 317 330 333 340 3 105 273 352 108 289 279 241 248 243 315 101 179 243 74 315 66 160 172 214 181 227 158 165 174 180 180 187 178 222 260 153 82 155 222 283 267
279 303 314 324 309 327 329 307 319 323 326 124 319 257 134 174 254 256 244 254 227 258 311 257 232 172 185 103 180 121 200 143 167 227 187 200 184 181 184 212 233 204 202 244 186 220 263